Starlink 1134

operational
NORAD ID: 45048 Int'l Des: 2020-006 Owner: SPXS Country: US Constellation: starlink
LEOCIRCULAR

关于 Starlink 1134

正在加载描述...

实时位置

正在加载3D地球...

即将过境

高度历史

Altitude vs Time

uPlot chart will show altitude changes over time

两行轨道根数

1 45048U 20006E 25351.17804558 .00021714 00000-0 68302-3 0 9990
2 45048 53.0384 267.4296 0004725 12.3693 347.7422 15.32908613324448
Epoch: Dec 17, 2025 • Age: 13 hours

当前状态

高度 477.2 km
速度 7.63 km/s
星下点 -24.36°S, 112.41°E
发射日期 Jan 29, 2020
运行时间 5.8 years
类型 internet

技术详情

分类 Payload
质量 260.00 kg
干质量 248.00 kg
总质量 260.00 kg
长度 0.20 m
直径 2.80 m
跨度 9.00 m
形状 Box + pan
制造商 SPXS
平台类型 Starlink
阶段状态 In Orbit
所有者/国家 SPXS/US

大型星座

Loading constellations...